Location: Sternwarte ZA, Rosenfeld-Brittheim
(48.2889°N, 8.6789°E)
Time: 06:06:15
(UTC+01:00)

ISS - Pass Details

Date: 24 November 2020
Orbit: 418 x 421 km, 51.6° (Epoch: 26 November)

Event Time Altitude Azimuth Distance (km) Brightness Sun altitude
Rises 18:06:56 0° 239° (WSW) 2,355 1.6 -14.5°
Reaches altitude 10° 18:09:02 10° 236° (WSW) 1,494 0.2 -14.8°
Maximum altitude 18:12:22 68° 153° (SSE) 453 -3.7 -15.4°
Enters shadow 18:13:32 37° 81° (E) 674 -3.3 -15.5°
